Year,Month,Day,Hour,Minute,Value (Times are PST for temperature in C)
2011,08,15,00,00,15.60
2011,08,15,00,01,15.50
2011,08,15,00,02,15.50
2011,08,15,00,03,15.50
2011,08,15,00,04,15.50
2011,08,15,00,05,15.50
2011,08,15,00,06,15.50
2011,08,15,00,07,15.40
2011,08,15,00,08,15.40
2011,08,15,00,09,15.40
2011,08,15,00,10,15.40
2011,08,15,00,11,15.40
2011,08,15,00,12,15.40
2011,08,15,00,13,15.40
2011,08,15,00,14,15.40
2011,08,15,00,15,15.40
2011,08,15,00,16,15.30
2011,08,15,00,17,15.30
2011,08,15,00,18,15.30
2011,08,15,00,19,15.30
2011,08,15,00,20,15.20
2011,08,15,00,21,15.20
2011,08,15,00,22,15.20
2011,08,15,00,23,15.10
2011,08,15,00,24,15.10
2011,08,15,00,25,15.00
2011,08,15,00,26,15.00
2011,08,15,00,27,15.00
2011,08,15,00,28,15.00
2011,08,15,00,29,15.00
2011,08,15,00,30,15.00
2011,08,15,00,31,15.00
2011,08,15,00,32,15.00
2011,08,15,00,33,15.00
2011,08,15,00,34,15.00
2011,08,15,00,35,15.00
2011,08,15,00,36,15.00
2011,08,15,00,37,15.00
2011,08,15,00,38,15.00
2011,08,15,00,39,15.00
2011,08,15,00,40,15.00
2011,08,15,00,41,14.90
2011,08,15,00,42,14.90
2011,08,15,00,43,14.80
2011,08,15,00,44,14.80
2011,08,15,00,45,14.80
2011,08,15,00,46,14.80
2011,08,15,00,47,14.70
2011,08,15,00,48,14.70
2011,08,15,00,49,14.70
2011,08,15,00,50,14.70
2011,08,15,00,51,14.60
2011,08,15,00,52,14.60
2011,08,15,00,53,14.60
2011,08,15,00,54,14.60
2011,08,15,00,55,14.50
2011,08,15,00,56,14.50
2011,08,15,00,57,14.50
2011,08,15,00,58,14.40
2011,08,15,00,59,14.40
2011,08,15,01,00,14.40
2011,08,15,01,01,14.40
2011,08,15,01,02,14.40
2011,08,15,01,03,14.40
2011,08,15,01,04,14.40
2011,08,15,01,05,14.40
2011,08,15,01,06,14.40
2011,08,15,01,07,14.40
2011,08,15,01,08,14.40
2011,08,15,01,09,14.40
2011,08,15,01,10,14.40
2011,08,15,01,11,14.40
2011,08,15,01,12,14.40
2011,08,15,01,13,14.30
2011,08,15,01,14,14.30
2011,08,15,01,15,14.30
2011,08,15,01,16,14.30
2011,08,15,01,17,14.30
2011,08,15,01,18,14.30
2011,08,15,01,19,14.30
2011,08,15,01,20,14.30
2011,08,15,01,21,14.30
2011,08,15,01,22,14.30
2011,08,15,01,23,14.30
2011,08,15,01,24,14.30
2011,08,15,01,25,14.30
2011,08,15,01,26,14.30
2011,08,15,01,27,14.30
2011,08,15,01,28,14.30
2011,08,15,01,29,14.30
2011,08,15,01,30,14.30
2011,08,15,01,31,14.30
2011,08,15,01,32,14.30
2011,08,15,01,33,14.40
2011,08,15,01,34,14.40
2011,08,15,01,35,14.40
2011,08,15,01,36,14.40
2011,08,15,01,37,14.40
2011,08,15,01,38,14.40
2011,08,15,01,39,14.40
2011,08,15,01,40,14.40
2011,08,15,01,41,14.40
2011,08,15,01,42,14.40
2011,08,15,01,43,14.40
2011,08,15,01,44,14.40
2011,08,15,01,45,14.40
2011,08,15,01,46,14.40
2011,08,15,01,47,14.40
2011,08,15,01,48,14.40
2011,08,15,01,49,14.40
2011,08,15,01,50,14.40
2011,08,15,01,51,14.50
2011,08,15,01,52,14.50
2011,08,15,01,53,14.50
2011,08,15,01,54,14.60
2011,08,15,01,55,14.60
2011,08,15,01,56,14.60
2011,08,15,01,57,14.70
2011,08,15,01,58,14.70
2011,08,15,01,59,14.70
2011,08,15,02,00,14.80
2011,08,15,02,01,14.80
2011,08,15,02,02,14.80
2011,08,15,02,03,14.90
2011,08,15,02,04,14.90
2011,08,15,02,05,15.00
2011,08,15,02,06,15.00
2011,08,15,02,07,15.00
2011,08,15,02,08,15.00
2011,08,15,02,09,15.00
2011,08,15,02,10,15.00
2011,08,15,02,11,15.00
2011,08,15,02,12,15.00
2011,08,15,02,13,15.00
2011,08,15,02,14,15.00
2011,08,15,02,15,15.00
2011,08,15,02,16,15.00
2011,08,15,02,17,15.00
2011,08,15,02,18,15.00
2011,08,15,02,19,15.00
2011,08,15,02,20,15.00
2011,08,15,02,21,15.00
2011,08,15,02,22,15.00
2011,08,15,02,23,15.00
2011,08,15,02,24,15.00
2011,08,15,02,25,15.00
2011,08,15,02,26,15.00
2011,08,15,02,27,15.00
2011,08,15,02,28,15.00
2011,08,15,02,29,15.00
2011,08,15,02,30,15.00
2011,08,15,02,31,15.00
2011,08,15,02,32,15.00
2011,08,15,02,33,15.00
2011,08,15,02,34,15.10
2011,08,15,02,35,15.10
2011,08,15,02,36,15.10
2011,08,15,02,37,15.00
2011,08,15,02,38,15.00
2011,08,15,02,39,15.00
2011,08,15,02,40,15.00
2011,08,15,02,41,15.00
2011,08,15,02,42,15.00
2011,08,15,02,43,15.00
2011,08,15,02,44,15.00
2011,08,15,02,45,15.00
2011,08,15,02,46,15.00
2011,08,15,02,47,15.00
2011,08,15,02,48,15.00
2011,08,15,02,49,15.00
2011,08,15,02,50,15.00
2011,08,15,02,51,15.00
2011,08,15,02,52,15.00
2011,08,15,02,53,15.00
2011,08,15,02,54,15.00
2011,08,15,02,55,15.00
2011,08,15,02,56,15.00
2011,08,15,02,57,15.00
2011,08,15,02,58,15.00
2011,08,15,02,59,15.00
2011,08,15,03,00,15.00
2011,08,15,03,01,15.00
2011,08,15,03,02,15.00
2011,08,15,03,03,14.90
2011,08,15,03,04,14.90
2011,08,15,03,05,14.80
2011,08,15,03,06,14.80
2011,08,15,03,07,14.70
2011,08,15,03,08,14.70
2011,08,15,03,09,14.60
2011,08,15,03,10,14.60
2011,08,15,03,11,14.50
2011,08,15,03,12,14.50
2011,08,15,03,13,14.40
2011,08,15,03,14,14.40
2011,08,15,03,15,14.40
2011,08,15,03,16,14.30
2011,08,15,03,17,14.30
2011,08,15,03,18,14.30
2011,08,15,03,19,14.30
2011,08,15,03,20,14.20
2011,08,15,03,21,14.20
2011,08,15,03,22,14.20
2011,08,15,03,23,14.20
2011,08,15,03,24,14.10
2011,08,15,03,25,14.10
2011,08,15,03,26,14.10
2011,08,15,03,27,14.10
2011,08,15,03,28,14.00
2011,08,15,03,29,14.00
2011,08,15,03,30,14.00
2011,08,15,03,31,14.00
2011,08,15,03,32,13.90
2011,08,15,03,33,13.90
2011,08,15,03,34,13.90
2011,08,15,03,35,13.90
2011,08,15,03,36,13.90
2011,08,15,03,37,13.90
2011,08,15,03,38,13.90
2011,08,15,03,39,13.90
2011,08,15,03,40,13.90
2011,08,15,03,41,13.90
2011,08,15,03,42,13.90
2011,08,15,03,43,13.90
2011,08,15,03,44,13.90
2011,08,15,03,45,13.90
2011,08,15,03,46,13.90
2011,08,15,03,47,13.80
2011,08,15,03,48,13.80
2011,08,15,03,49,13.80
2011,08,15,03,50,13.80
2011,08,15,03,51,13.80
2011,08,15,03,52,13.80
2011,08,15,03,53,13.80
2011,08,15,03,54,13.80
2011,08,15,03,55,13.80
2011,08,15,03,56,13.80
2011,08,15,03,57,13.80
2011,08,15,03,58,13.80
2011,08,15,03,59,13.80
2011,08,15,04,00,13.80
2011,08,15,04,01,13.80
2011,08,15,04,02,13.80
2011,08,15,04,03,13.70
2011,08,15,04,04,13.70
2011,08,15,04,05,13.70
2011,08,15,04,06,13.70
2011,08,15,04,07,13.70
2011,08,15,04,08,13.70
2011,08,15,04,09,13.70
2011,08,15,04,10,13.70
2011,08,15,04,11,13.70
2011,08,15,04,12,13.60
2011,08,15,04,13,13.60
2011,08,15,04,14,13.60
2011,08,15,04,15,13.60
2011,08,15,04,16,13.60
2011,08,15,04,17,13.60
2011,08,15,04,18,13.60
2011,08,15,04,19,13.60
2011,08,15,04,20,13.60
2011,08,15,04,21,13.50
2011,08,15,04,22,13.50
2011,08,15,04,23,13.50
2011,08,15,04,24,13.50
2011,08,15,04,25,13.50
2011,08,15,04,26,13.40
2011,08,15,04,27,13.40
2011,08,15,04,28,13.40
2011,08,15,04,29,13.40
2011,08,15,04,30,13.40
2011,08,15,04,31,13.40
2011,08,15,04,32,13.40
2011,08,15,04,33,13.30
2011,08,15,04,34,13.30
2011,08,15,04,35,13.30
2011,08,15,04,36,13.30
2011,08,15,04,37,13.30
2011,08,15,04,38,13.30
2011,08,15,04,39,13.30
2011,08,15,04,40,13.30
2011,08,15,04,41,13.20
2011,08,15,04,42,13.20
2011,08,15,04,43,13.20
2011,08,15,04,44,13.20
2011,08,15,04,45,13.20
2011,08,15,04,46,13.20
2011,08,15,04,47,13.10
2011,08,15,04,48,13.10
2011,08,15,04,49,13.10
2011,08,15,04,50,13.10
2011,08,15,04,51,13.10
2011,08,15,04,52,13.10
2011,08,15,04,53,13.10
2011,08,15,04,54,13.10
2011,08,15,04,55,13.10
2011,08,15,04,56,13.10
2011,08,15,04,57,13.10
2011,08,15,04,58,13.00
2011,08,15,04,59,13.00
2011,08,15,05,00,13.00
2011,08,15,05,01,13.00
2011,08,15,05,02,12.90
2011,08,15,05,03,12.90
2011,08,15,05,04,12.90
2011,08,15,05,05,12.90
2011,08,15,05,06,12.90
2011,08,15,05,07,12.80
2011,08,15,05,08,12.80
2011,08,15,05,09,12.80
2011,08,15,05,10,12.80
2011,08,15,05,11,12.80
2011,08,15,05,12,12.80
2011,08,15,05,13,12.80
2011,08,15,05,14,12.70
2011,08,15,05,15,12.70
2011,08,15,05,16,12.70
2011,08,15,05,17,12.70
2011,08,15,05,18,12.70
2011,08,15,05,19,12.70
2011,08,15,05,20,12.70
2011,08,15,05,21,12.60
2011,08,15,05,22,12.60
2011,08,15,05,23,12.60
2011,08,15,05,24,12.60
2011,08,15,05,25,12.60
2011,08,15,05,26,12.60
2011,08,15,05,27,12.60
2011,08,15,05,28,12.60
2011,08,15,05,29,12.60
2011,08,15,05,30,12.60
2011,08,15,05,31,12.60
2011,08,15,05,32,12.60
2011,08,15,05,33,12.60
2011,08,15,05,34,12.60
2011,08,15,05,35,12.60
2011,08,15,05,36,12.60
2011,08,15,05,37,12.60
2011,08,15,05,38,12.60
2011,08,15,05,39,12.60
2011,08,15,05,40,12.60
2011,08,15,05,41,12.70
2011,08,15,05,42,12.70
2011,08,15,05,43,12.70
2011,08,15,05,44,12.70
2011,08,15,05,45,12.70
2011,08,15,05,46,12.70
2011,08,15,05,47,12.80
2011,08,15,05,48,12.80
2011,08,15,05,49,12.80
2011,08,15,05,50,12.80
2011,08,15,05,51,12.80
2011,08,15,05,52,12.80
2011,08,15,05,53,12.80
2011,08,15,05,54,12.80
2011,08,15,05,55,12.80
2011,08,15,05,56,12.80
2011,08,15,05,57,12.80
2011,08,15,05,58,12.80
2011,08,15,05,59,12.90
2011,08,15,06,00,12.90
2011,08,15,06,01,12.90
2011,08,15,06,02,12.90
2011,08,15,06,03,12.90
2011,08,15,06,04,12.90
2011,08,15,06,05,12.90
2011,08,15,06,06,12.90
2011,08,15,06,07,12.90
2011,08,15,06,08,12.90
2011,08,15,06,09,12.90
2011,08,15,06,10,12.90
2011,08,15,06,11,12.90
2011,08,15,06,12,12.80
2011,08,15,06,13,12.80
2011,08,15,06,14,12.80
2011,08,15,06,15,12.80
2011,08,15,06,16,12.80
2011,08,15,06,17,12.80
2011,08,15,06,18,12.80
2011,08,15,06,19,12.80
2011,08,15,06,20,12.80
2011,08,15,06,21,12.80
2011,08,15,06,22,12.80
2011,08,15,06,23,12.80
2011,08,15,06,24,12.80
2011,08,15,06,25,12.80
2011,08,15,06,26,12.80
2011,08,15,06,27,12.80
2011,08,15,06,28,12.80
2011,08,15,06,29,12.70
2011,08,15,06,30,12.70
2011,08,15,06,31,12.70
2011,08,15,06,32,12.70
2011,08,15,06,33,12.70
2011,08,15,06,34,12.70
2011,08,15,06,35,12.70
2011,08,15,06,36,12.70
2011,08,15,06,37,12.60
2011,08,15,06,38,12.60
2011,08,15,06,39,12.60
2011,08,15,06,40,12.60
2011,08,15,06,41,12.60
2011,08,15,06,42,12.60
2011,08,15,06,43,12.60
2011,08,15,06,44,12.60
2011,08,15,06,45,12.60
2011,08,15,06,46,12.60
2011,08,15,06,47,12.60
2011,08,15,06,48,12.60
2011,08,15,06,49,12.60
2011,08,15,06,50,12.60
2011,08,15,06,51,12.60
2011,08,15,06,52,12.60
2011,08,15,06,53,12.60
2011,08,15,06,54,12.60
2011,08,15,06,55,12.60
2011,08,15,06,56,12.60
2011,08,15,06,57,12.60
2011,08,15,06,58,12.50
2011,08,15,06,59,12.60
2011,08,15,07,00,12.50
2011,08,15,07,01,12.50
2011,08,15,07,02,12.50
2011,08,15,07,03,12.60
2011,08,15,07,04,12.50
2011,08,15,07,05,12.50
2011,08,15,07,06,12.60
2011,08,15,07,07,12.60
2011,08,15,07,08,12.60
2011,08,15,07,09,12.60
2011,08,15,07,10,12.60
2011,08,15,07,11,12.60
2011,08,15,07,12,12.60
2011,08,15,07,13,12.60
2011,08,15,07,14,12.70
2011,08,15,07,15,12.70
2011,08,15,07,16,12.70
2011,08,15,07,17,12.70
2011,08,15,07,18,12.70
2011,08,15,07,19,12.80
2011,08,15,07,20,12.80
2011,08,15,07,21,12.80
2011,08,15,07,22,12.80
2011,08,15,07,23,12.80
2011,08,15,07,24,12.80
2011,08,15,07,25,12.80
2011,08,15,07,26,12.80
2011,08,15,07,27,12.90
2011,08,15,07,28,12.90
2011,08,15,07,29,12.90
2011,08,15,07,30,12.90
2011,08,15,07,31,12.90
2011,08,15,07,32,12.90
2011,08,15,07,33,12.90
2011,08,15,07,34,13.00
2011,08,15,07,35,13.00
2011,08,15,07,36,13.00
2011,08,15,07,37,13.10
2011,08,15,07,38,13.10
2011,08,15,07,39,13.10
2011,08,15,07,40,13.20
2011,08,15,07,41,13.20
2011,08,15,07,42,13.20
2011,08,15,07,43,13.30
2011,08,15,07,44,13.30
2011,08,15,07,45,13.30
2011,08,15,07,46,13.40
2011,08,15,07,47,13.40
2011,08,15,07,48,13.40
2011,08,15,07,49,13.50
2011,08,15,07,50,13.50
2011,08,15,07,51,13.50
2011,08,15,07,52,13.60
2011,08,15,07,53,13.60
2011,08,15,07,54,13.70
2011,08,15,07,55,13.70
2011,08,15,07,56,13.70
2011,08,15,07,57,13.80
2011,08,15,07,58,13.80
2011,08,15,07,59,13.80
2011,08,15,08,00,13.80
2011,08,15,08,01,13.80
2011,08,15,08,02,13.90
2011,08,15,08,03,13.90
2011,08,15,08,04,14.00
2011,08,15,08,05,14.00
2011,08,15,08,06,14.10
2011,08,15,08,07,14.10
2011,08,15,08,08,14.10
2011,08,15,08,09,14.10
2011,08,15,08,10,14.20
2011,08,15,08,11,14.20
2011,08,15,08,12,14.20
2011,08,15,08,13,14.30
2011,08,15,08,14,14.30
2011,08,15,08,15,14.30
2011,08,15,08,16,14.30
2011,08,15,08,17,14.30
2011,08,15,08,18,14.40
2011,08,15,08,19,14.40
2011,08,15,08,20,14.50
2011,08,15,08,21,14.50
2011,08,15,08,22,14.50
2011,08,15,08,23,14.60
2011,08,15,08,24,14.60
2011,08,15,08,25,14.60
2011,08,15,08,26,14.60
2011,08,15,08,27,14.60
2011,08,15,08,28,14.70
2011,08,15,08,29,14.70
2011,08,15,08,30,14.70
2011,08,15,08,31,14.70
2011,08,15,08,32,14.80
2011,08,15,08,33,14.80
2011,08,15,08,34,14.80
2011,08,15,08,35,14.80
2011,08,15,08,36,14.80
2011,08,15,08,37,14.90
2011,08,15,08,38,14.90
2011,08,15,08,39,15.00
2011,08,15,08,40,15.00
2011,08,15,08,41,15.00
2011,08,15,08,42,15.00
2011,08,15,08,43,15.00
2011,08,15,08,44,15.10
2011,08,15,08,45,15.10
2011,08,15,08,46,15.20
2011,08,15,08,47,15.30
2011,08,15,08,48,15.30
2011,08,15,08,49,15.30
2011,08,15,08,50,15.40
2011,08,15,08,51,15.40
2011,08,15,08,52,15.40
2011,08,15,08,53,15.50
2011,08,15,08,54,15.50
2011,08,15,08,55,15.50
2011,08,15,08,56,15.60
2011,08,15,08,57,15.60
2011,08,15,08,58,15.60
2011,08,15,08,59,15.60
2011,08,15,09,00,15.60
2011,08,15,09,01,15.60
2011,08,15,09,02,15.60
2011,08,15,09,03,15.70
2011,08,15,09,04,15.70
2011,08,15,09,05,15.80
2011,08,15,09,06,15.80
2011,08,15,09,07,15.80
2011,08,15,09,08,15.90
2011,08,15,09,09,15.90
2011,08,15,09,10,15.90
2011,08,15,09,11,16.00
2011,08,15,09,12,16.00
2011,08,15,09,13,16.10
2011,08,15,09,14,16.10
2011,08,15,09,15,16.10
2011,08,15,09,16,16.10
2011,08,15,09,17,16.20
2011,08,15,09,18,16.20
2011,08,15,09,19,16.20
2011,08,15,09,20,16.20
2011,08,15,09,21,16.30
2011,08,15,09,22,16.30
2011,08,15,09,23,16.30
2011,08,15,09,24,16.40
2011,08,15,09,25,16.40
2011,08,15,09,26,16.40
2011,08,15,09,27,16.40
2011,08,15,09,28,16.50
2011,08,15,09,29,16.50
2011,08,15,09,30,16.60
2011,08,15,09,31,16.70
2011,08,15,09,32,16.70
2011,08,15,09,33,16.80
2011,08,15,09,34,16.80
2011,08,15,09,35,16.80
2011,08,15,09,36,16.90
2011,08,15,09,37,16.90
2011,08,15,09,38,16.90
2011,08,15,09,39,16.90
2011,08,15,09,40,16.90
2011,08,15,09,41,16.90
2011,08,15,09,42,16.90
2011,08,15,09,43,16.80
2011,08,15,09,44,16.80
2011,08,15,09,45,16.90
2011,08,15,09,46,16.90
2011,08,15,09,47,17.00
2011,08,15,09,48,17.00
2011,08,15,09,49,17.10
2011,08,15,09,50,17.20
2011,08,15,09,51,17.30
2011,08,15,09,52,17.40
2011,08,15,09,53,17.50
2011,08,15,09,54,17.60
2011,08,15,09,55,17.70
2011,08,15,09,56,17.80
2011,08,15,09,57,17.90
2011,08,15,09,58,17.90
2011,08,15,09,59,18.00
2011,08,15,10,00,18.10
2011,08,15,10,01,18.10
2011,08,15,10,02,18.20
2011,08,15,10,03,18.20
2011,08,15,10,04,18.10
2011,08,15,10,05,18.00
2011,08,15,10,06,17.90
2011,08,15,10,07,18.00
2011,08,15,10,08,18.00
2011,08,15,10,09,18.10
2011,08,15,10,10,18.10
2011,08,15,10,11,18.20
2011,08,15,10,12,18.30
2011,08,15,10,13,18.30
2011,08,15,10,14,18.40
2011,08,15,10,15,18.40
2011,08,15,10,16,18.40
2011,08,15,10,17,18.40
2011,08,15,10,18,18.50
2011,08,15,10,19,18.50
2011,08,15,10,20,18.50
2011,08,15,10,21,18.60
2011,08,15,10,22,18.60
2011,08,15,10,23,18.50
2011,08,15,10,24,18.50
2011,08,15,10,25,18.50
2011,08,15,10,26,18.60
2011,08,15,10,27,18.60
2011,08,15,10,28,18.50
2011,08,15,10,29,18.50
2011,08,15,10,30,18.40
2011,08,15,10,31,18.30
2011,08,15,10,32,18.30
2011,08,15,10,33,18.40
2011,08,15,10,34,18.40
2011,08,15,10,35,18.50
2011,08,15,10,36,18.50
2011,08,15,10,37,18.60
2011,08,15,10,38,18.60
2011,08,15,10,39,18.70
2011,08,15,10,40,18.70
2011,08,15,10,41,18.70
2011,08,15,10,42,18.70
2011,08,15,10,43,18.70
2011,08,15,10,44,18.70
2011,08,15,10,45,18.70
2011,08,15,10,46,18.80
2011,08,15,10,47,18.80
2011,08,15,10,48,18.90
2011,08,15,10,49,18.90
2011,08,15,10,50,18.90
2011,08,15,10,51,19.00
2011,08,15,10,52,19.00
2011,08,15,10,53,19.00
2011,08,15,10,54,19.00
2011,08,15,10,55,19.10
2011,08,15,10,56,19.00
2011,08,15,10,57,19.00
2011,08,15,10,58,19.00
2011,08,15,10,59,18.90
2011,08,15,11,00,18.90
2011,08,15,11,01,18.90
2011,08,15,11,02,18.90
2011,08,15,11,03,18.90
2011,08,15,11,04,18.90
2011,08,15,11,05,18.90
2011,08,15,11,06,18.90
2011,08,15,11,07,18.90
2011,08,15,11,08,18.80
2011,08,15,11,09,18.80
2011,08,15,11,10,18.80
2011,08,15,11,11,18.80
2011,08,15,11,12,18.80
2011,08,15,11,13,18.80
2011,08,15,11,14,18.80
2011,08,15,11,15,18.80
2011,08,15,11,16,18.60
2011,08,15,11,17,18.50
2011,08,15,11,18,18.40
2011,08,15,11,19,18.30
2011,08,15,11,20,18.10
2011,08,15,11,21,18.00
2011,08,15,11,22,18.00
2011,08,15,11,23,17.90
2011,08,15,11,24,17.80
2011,08,15,11,25,17.80
2011,08,15,11,26,17.80
2011,08,15,11,27,17.90
2011,08,15,11,28,17.90
2011,08,15,11,29,18.00
2011,08,15,11,30,18.10
2011,08,15,11,31,18.20
2011,08,15,11,32,18.30
2011,08,15,11,33,18.40
2011,08,15,11,34,18.60
2011,08,15,11,35,18.70
2011,08,15,11,36,18.80
2011,08,15,11,37,18.90
2011,08,15,11,38,19.00
2011,08,15,11,39,19.00
2011,08,15,11,40,19.00
2011,08,15,11,41,19.00
2011,08,15,11,42,18.90
2011,08,15,11,43,18.80
2011,08,15,11,44,18.80
2011,08,15,11,45,18.80
2011,08,15,11,46,18.80
2011,08,15,11,47,18.80
2011,08,15,11,48,18.70
2011,08,15,11,49,18.70
2011,08,15,11,50,18.60
2011,08,15,11,51,18.60
2011,08,15,11,52,18.60
2011,08,15,11,53,18.60
2011,08,15,11,54,18.60
2011,08,15,11,55,18.60
2011,08,15,11,56,18.60
2011,08,15,11,57,18.60
2011,08,15,11,58,18.50
2011,08,15,11,59,18.50
2011,08,15,12,00,18.40
2011,08,15,12,01,18.40
2011,08,15,12,02,18.50
2011,08,15,12,03,18.40
2011,08,15,12,04,18.40
2011,08,15,12,05,18.40
2011,08,15,12,06,18.30
2011,08,15,12,07,18.30
2011,08,15,12,08,18.20
2011,08,15,12,09,18.10
2011,08,15,12,10,18.10
2011,08,15,12,11,18.10
2011,08,15,12,12,18.10
2011,08,15,12,13,18.10
2011,08,15,12,14,18.10
2011,08,15,12,15,18.00
2011,08,15,12,16,18.00
2011,08,15,12,17,18.00
2011,08,15,12,18,17.90
2011,08,15,12,19,17.90
2011,08,15,12,20,17.80
2011,08,15,12,21,17.80
2011,08,15,12,22,17.80
2011,08,15,12,23,17.80
2011,08,15,12,24,17.80
2011,08,15,12,25,17.70
2011,08,15,12,26,17.70
2011,08,15,12,27,17.60
2011,08,15,12,28,17.60
2011,08,15,12,29,17.50
2011,08,15,12,30,17.50
2011,08,15,12,31,17.50
2011,08,15,12,32,17.50
2011,08,15,12,33,17.50
2011,08,15,12,34,17.50
2011,08,15,12,35,17.50
2011,08,15,12,36,17.40
2011,08,15,12,37,17.50
2011,08,15,12,38,17.50
2011,08,15,12,39,17.60
2011,08,15,12,40,17.60
2011,08,15,12,41,17.70
2011,08,15,12,42,17.80
2011,08,15,12,43,17.80
2011,08,15,12,44,17.80
2011,08,15,12,45,17.80
2011,08,15,12,46,17.80
2011,08,15,12,47,17.80
2011,08,15,12,48,17.80
2011,08,15,12,49,17.80
2011,08,15,12,50,17.70
2011,08,15,12,51,17.70
2011,08,15,12,52,17.70
2011,08,15,12,53,17.70
2011,08,15,12,54,17.80
2011,08,15,12,55,17.90
2011,08,15,12,56,18.00
2011,08,15,12,57,18.10
2011,08,15,12,58,18.20
2011,08,15,12,59,18.20
2011,08,15,13,00,18.30
2011,08,15,13,01,18.40
2011,08,15,13,02,18.50
2011,08,15,13,03,18.50
2011,08,15,13,04,18.70
2011,08,15,13,05,18.80
2011,08,15,13,06,18.90
2011,08,15,13,07,19.00
2011,08,15,13,08,19.10
2011,08,15,13,09,19.10
2011,08,15,13,10,19.10
2011,08,15,13,11,19.20
2011,08,15,13,12,19.20
2011,08,15,13,13,19.30
2011,08,15,13,14,19.30
2011,08,15,13,15,19.30
2011,08,15,13,16,19.30
2011,08,15,13,17,19.20
2011,08,15,13,18,19.20
2011,08,15,13,19,19.20
2011,08,15,13,20,19.30
2011,08,15,13,21,19.40
2011,08,15,13,22,19.50
2011,08,15,13,23,19.60
2011,08,15,13,24,19.70
2011,08,15,13,25,19.70
2011,08,15,13,26,19.80
2011,08,15,13,27,19.80
2011,08,15,13,28,19.80
2011,08,15,13,29,19.80
2011,08,15,13,30,19.90
2011,08,15,13,31,20.00
2011,08,15,13,32,20.10
2011,08,15,13,33,20.10
2011,08,15,13,34,20.20
2011,08,15,13,35,20.30
2011,08,15,13,36,20.40
2011,08,15,13,37,20.50
2011,08,15,13,38,20.60
2011,08,15,13,39,20.60
2011,08,15,13,40,20.70
2011,08,15,13,41,20.70
2011,08,15,13,42,20.70
2011,08,15,13,43,20.70
2011,08,15,13,44,20.70
2011,08,15,13,45,20.70
2011,08,15,13,46,20.70
2011,08,15,13,47,20.70
2011,08,15,13,48,20.80
2011,08,15,13,49,20.80
2011,08,15,13,50,20.80
2011,08,15,13,51,20.80
2011,08,15,13,52,20.90
2011,08,15,13,53,20.90
2011,08,15,13,54,20.90
2011,08,15,13,55,20.90
2011,08,15,13,56,20.90
2011,08,15,13,57,20.90
2011,08,15,13,58,20.90
2011,08,15,13,59,20.80
2011,08,15,14,00,20.90
2011,08,15,14,01,20.90
2011,08,15,14,02,20.90
2011,08,15,14,03,20.90
2011,08,15,14,04,20.90
2011,08,15,14,05,20.90
2011,08,15,14,06,20.90
2011,08,15,14,07,20.80
2011,08,15,14,08,20.80
2011,08,15,14,09,20.90
2011,08,15,14,10,20.90
2011,08,15,14,11,20.80
2011,08,15,14,12,20.80
2011,08,15,14,13,20.70
2011,08,15,14,14,20.80
2011,08,15,14,15,20.80
2011,08,15,14,16,20.90
2011,08,15,14,17,20.90
2011,08,15,14,18,21.00
2011,08,15,14,19,21.00
2011,08,15,14,20,20.90
2011,08,15,14,21,20.80
2011,08,15,14,22,20.70
2011,08,15,14,23,20.70
2011,08,15,14,24,20.70
2011,08,15,14,25,20.70
2011,08,15,14,26,20.80
2011,08,15,14,27,20.80
2011,08,15,14,28,20.90
2011,08,15,14,29,20.90
2011,08,15,14,30,20.90
2011,08,15,14,31,21.00
2011,08,15,14,32,21.00
2011,08,15,14,33,20.90
2011,08,15,14,34,20.80
2011,08,15,14,35,20.80
2011,08,15,14,36,20.70
2011,08,15,14,37,20.70
2011,08,15,14,38,20.70
2011,08,15,14,39,20.70
2011,08,15,14,40,20.70
2011,08,15,14,41,20.70
2011,08,15,14,42,20.60
2011,08,15,14,43,20.60
2011,08,15,14,44,20.60
2011,08,15,14,45,20.70
2011,08,15,14,46,20.80
2011,08,15,14,47,20.90
2011,08,15,14,48,21.00
2011,08,15,14,49,21.20
2011,08,15,14,50,21.30
2011,08,15,14,51,21.40
2011,08,15,14,52,21.40
2011,08,15,14,53,21.50
2011,08,15,14,54,21.50
2011,08,15,14,55,21.40
2011,08,15,14,56,21.40
2011,08,15,14,57,21.50
2011,08,15,14,58,21.50
2011,08,15,14,59,21.50
2011,08,15,15,00,21.50
2011,08,15,15,01,21.50
2011,08,15,15,02,21.50
2011,08,15,15,03,21.60
2011,08,15,15,04,21.70
2011,08,15,15,05,21.70
2011,08,15,15,06,21.80
2011,08,15,15,07,21.80
2011,08,15,15,08,21.90
2011,08,15,15,09,22.00
2011,08,15,15,10,22.00
2011,08,15,15,11,22.20
2011,08,15,15,12,22.20
2011,08,15,15,13,22.10
2011,08,15,15,14,22.10
2011,08,15,15,15,22.00
2011,08,15,15,16,21.90
2011,08,15,15,17,21.80
2011,08,15,15,18,21.80
2011,08,15,15,19,21.80
2011,08,15,15,20,21.80
2011,08,15,15,21,21.80
2011,08,15,15,22,21.90
2011,08,15,15,23,22.00
2011,08,15,15,24,22.10
2011,08,15,15,25,22.10
2011,08,15,15,26,22.20
2011,08,15,15,27,22.20
2011,08,15,15,28,22.10
2011,08,15,15,29,22.10
2011,08,15,15,30,22.10
2011,08,15,15,31,22.00
2011,08,15,15,32,21.90
2011,08,15,15,33,21.90
2011,08,15,15,34,21.90
2011,08,15,15,35,21.90
2011,08,15,15,36,21.90
2011,08,15,15,37,22.00
2011,08,15,15,38,22.00
2011,08,15,15,39,22.10
2011,08,15,15,40,22.10
2011,08,15,15,41,22.20
2011,08,15,15,42,22.30
2011,08,15,15,43,22.40
2011,08,15,15,44,22.40
2011,08,15,15,45,22.50
2011,08,15,15,46,22.50
2011,08,15,15,47,22.50
2011,08,15,15,48,22.50
2011,08,15,15,49,22.40
2011,08,15,15,50,22.30
2011,08,15,15,51,22.20
2011,08,15,15,52,22.20
2011,08,15,15,53,22.30
2011,08,15,15,54,22.30
2011,08,15,15,55,22.30
2011,08,15,15,56,22.20
2011,08,15,15,57,22.10
2011,08,15,15,58,22.00
2011,08,15,15,59,21.90
2011,08,15,16,00,21.80
2011,08,15,16,01,21.70
2011,08,15,16,02,21.50
2011,08,15,16,03,21.50
2011,08,15,16,04,21.50
2011,08,15,16,05,21.50
2011,08,15,16,06,21.60
2011,08,15,16,07,21.70
2011,08,15,16,08,21.80
2011,08,15,16,09,21.80
2011,08,15,16,10,21.90
2011,08,15,16,11,22.00
2011,08,15,16,12,22.10
2011,08,15,16,13,22.10
2011,08,15,16,14,22.10
2011,08,15,16,15,22.10
2011,08,15,16,16,22.10
2011,08,15,16,17,22.10
2011,08,15,16,18,22.20
2011,08,15,16,19,22.20
2011,08,15,16,20,22.30
2011,08,15,16,21,22.30
2011,08,15,16,22,22.30
2011,08,15,16,23,22.30
2011,08,15,16,24,22.30
2011,08,15,16,25,22.30
2011,08,15,16,26,22.30
2011,08,15,16,27,22.20
2011,08,15,16,28,22.00
2011,08,15,16,29,21.90
2011,08,15,16,30,21.90
2011,08,15,16,31,21.90
2011,08,15,16,32,22.00
2011,08,15,16,33,22.00
2011,08,15,16,34,21.90
2011,08,15,16,35,21.90
2011,08,15,16,36,21.80
2011,08,15,16,37,21.80
2011,08,15,16,38,21.80
2011,08,15,16,39,21.90
2011,08,15,16,40,21.90
2011,08,15,16,41,21.90
2011,08,15,16,42,21.90
2011,08,15,16,43,21.90
2011,08,15,16,44,22.00
2011,08,15,16,45,22.10
2011,08,15,16,46,22.10
2011,08,15,16,47,22.20
2011,08,15,16,48,22.20
2011,08,15,16,49,22.20
2011,08,15,16,50,22.20
2011,08,15,16,51,22.20
2011,08,15,16,52,22.20
2011,08,15,16,53,22.30
2011,08,15,16,54,22.30
2011,08,15,16,55,22.30
2011,08,15,16,56,22.40
2011,08,15,16,57,22.40
2011,08,15,16,58,22.40
2011,08,15,16,59,22.30
2011,08,15,17,00,22.30
2011,08,15,17,01,22.30
2011,08,15,17,02,22.30
2011,08,15,17,03,22.30
2011,08,15,17,04,22.20
2011,08,15,17,05,22.20
2011,08,15,17,06,22.20
2011,08,15,17,07,22.10
2011,08,15,17,08,22.00
2011,08,15,17,09,21.90
2011,08,15,17,10,21.80
2011,08,15,17,11,21.80
2011,08,15,17,12,21.80
2011,08,15,17,13,21.80
2011,08,15,17,14,21.70
2011,08,15,17,15,21.60
2011,08,15,17,16,21.60
2011,08,15,17,17,21.60
2011,08,15,17,18,21.60
2011,08,15,17,19,21.60